Flag for Ukraine Weather past 2 weeks in Chernobyl, Ukraine

Now
70 °F

Mild.


Feels Like: 70 °F
Forecast: 60 / 95 °F
Wind: 3 mph from Southwest

Location: Hostomel

Current Time: Jul 7, 2015 at 4:02:58 AM

Latest Report: Jul 7, 2015 at 3:00 AM


Visibility: N/A

Pressure: 29.89 "Hg

Humidity: 78%

Dew point: 63 °F

Location of ChernobylLocation

Historic Weather in Chernobyl — Graph

°F

Chernobyl temperature yesterday

Maximum temperature yesterday: 91 °F (at 2:00 PM)
Minimum temperature yesterday: 66 °F (at 4:00 AM)
Average temperature yesterday: 82 °F

Past Weeks' High & Low Weather Summary

 TemperatureHumidityPressure
High91 °F (Jul 5, 6:00 PM)100% (Jun 22, 9:00 AM)30.36 "Hg (Jun 22, 9:00 AM)
Low50 °F (Jun 23, 5:00 AM)21% (Jul 5, 6:00 PM)29.74 "Hg (Jun 27, 4:00 AM)
Average70 °F56%30.01 "Hg
* Reported Jun 22 3:00 AM — Jul 7 3:00 AM, Chernobyl, Weather by CustomWeather, © 2015

Note: Actual official high and low records may vary slightly from our data, if they occured in-between our weather recording intervals... More about our weather records

Advertising

Chernobyl weather history for previous 24 hours

 ConditionsComfort  
Time TempWeatherWind HumidityBarometerVisibility
3:00 AM
Tue, Jul 7
70 °FMild.3 mph78%29.89 "HgN/A
2:00 AM72 °FMild.3 mph69%29.89 "HgN/A
1:00 AM75 °FMild.6 mph61%29.92 "Hg6 mi
12:00 AM77 °FWarm.6 mph54%29.92 "HgN/A
11:00 PM
Mon, Jul 6
79 °FWarm.6 mph51%29.92 "HgN/A
10:00 PM81 °FWarm.3 mph48%29.92 "HgN/A
9:00 PM82 °FWarm.6 mph42%29.92 "HgN/A
8:00 PM88 °FPleasantly warm.6 mph29%29.92 "HgN/A
7:00 PM90 °FHot.6 mph26%29.92 "HgN/A
6:00 PM90 °FHot.3 mph26%29.92 "HgN/A
5:00 PM90 °FPassing clouds.6 mph27%29.92 "HgN/A
4:30 PM90 °FPassing clouds.6 mph26%29.92 "HgN/A
4:00 PM90 °FPassing clouds.8 mph27%29.92 "HgN/A
3:30 PM90 °FPassing clouds.8 mph27%29.92 "HgN/A
3:00 PM90 °FPassing clouds.8 mph27%29.92 "HgN/A
2:30 PM90 °FPassing clouds.10 mph27%29.95 "HgN/A
2:00 PM91 °FSunny.3 mph26%29.95 "Hg10 mi
1:30 PM90 °FPassing clouds.8 mph27%29.95 "HgN/A
1:00 PM88 °FPassing clouds.6 mph29%29.95 "HgN/A
12:30 PM86 °FPassing clouds.8 mph31%29.95 "HgN/A
12:00 PM86 °FPassing clouds.6 mph33%29.95 "HgN/A
11:30 AM86 °FPassing clouds.6 mph33%29.95 "HgN/A
11:00 AM88 °FSunny.6 mph33%29.95 "Hg10 mi
10:30 AM86 °FPassing clouds.6 mph33%29.95 "HgN/A
10:00 AM86 °FPassing clouds.6 mph35%29.95 "HgN/A
9:30 AM84 °FPassing clouds.3 mph40%29.95 "HgN/A
9:00 AM81 °FPassing clouds.3 mph48%29.95 "HgN/A
8:00 AM75 °FSunny.6 mph57%29.95 "Hg10 mi
7:00 AM72 °FSunny.1 mph65%29.95 "Hg10 mi
6:00 AM66 °FMild.3 mph73%29.95 "HgN/A
5:00 AM66 °FMild.3 mph73%29.95 "HgN/A
4:00 AM66 °FMild.3 mph73%29.92 "Hg6 mi
Weather by CustomWeather, © 2015

See weather overviewHow to use our weather pages